Simultaneous Nadir Overpasses (SNOs) Predictions

Prediction of SNOs between AQUA and GOES-15 Satellite Orbit:

Table of predicted SNOs for the next 14.0 days since TLE Epoch: 11/17/2017
Index Date Time (AQUA) AQUA Lat,Lon GOES-15 Lat,Lon Distance(km) Time Diff (sec)
1 11/18/2017 22:28:48 0.26,-133.38 -0.05,-134.94 176.70 80
2 11/19/2017 10:50:04 0.77,-138.55 0.03,-135.05 397.69 80
3 11/21/2017 10:37:54 0.16,-135.59 0.04,-135.11 54.60 80
4 11/23/2017 10:25:44 -0.51,-132.64 0.04,-135.17 287.95 80
5 11/23/2017 22:47:07 -0.60,-137.83 -0.02,-135.09 311.75 80
6 11/25/2017 22:34:56 0.02,-134.87 -0.02,-135.14 30.16 80
7 11/27/2017 22:22:45 0.66,-131.92 -0.02,-135.19 371.61 80
8 11/28/2017 10:44:02 0.38,-137.09 0.01,-135.30 203.42 80
9 11/30/2017 10:31:51 -0.25,-134.13 0.01,-135.34 137.27 80
10 11/30/2017 22:53:15 -0.84,-139.32 0.01,-135.25 462.77 80




NCC Satellite Simultaneous Nadir Overpasses (SNOs) Prediction Service
